Weather History for Hayward, WI

Change the Weather History Date:

Tuesday, October 8, 2013

  Actual Average Record
Temperature  
Mean Temperature 53 °F -  
Max Temperature 73 °F 49 °F 81 °F (2011)
Min Temperature 33 °F 33 °F 23 °F (1996)
Degree Days  
Heating Degree Days 12    
Growing Degree Days 3 (Base 50)    
Moisture  
Dew Point 40 °F    
Average Humidity 59    
Maximum Humidity 96    
Minimum Humidity 31    
Precipitation  
Precipitation 0.00 in - - ()
Sea Level Pressure  
Sea Level Pressure 29.96 in    
Wind  
Wind Speed 4 mph (South)    
Max Wind Speed 13 mph    
Max Gust Speed 25 mph    
Visibility 10 miles    
Events      
Averages and records for this station are not official NWS values.
T = Trace of Precipitation, MM = Missing Value Source: NWS Daily Summary

Daily Weather History Graph

Daily Weather History Graph

Search for Another Location

Airport:

Trip Planner

Search our weather history database for the weather conditions in past years. The results will help you decide how hot, cold, wet, or windy it might be!

Date:

Astronomy

Oct. 08, 2013 Rise Set
Actual Time 7:13 AM CDT 6:32 PM CDT
Civil Twilight 6:43 AM CDT 7:01 PM CDT
Nautical Twilight 6:09 AM CDT 7:36 PM CDT
Astronomical Twilight 5:34 AM CDT 8:11 PM CDT
Moon 11:20 AM CDT (10/8) 8:56 PM CDT (10/8)
Length of Visible Light 12h 18m
Length of Day
11h 18m
Waxing Crescent, 16% of the Moon is Illuminated
Oct 8
Waxing Crescent
Oct 11
First Quarter
Oct 18
Full
Oct 26
Last Quarter
Nov 3
New

Hourly Weather History & Observations

Time (CDT) Temp. Windchill Dew Point Humidity Pressure Visibility Wind Dir Wind Speed Gust Speed Precip Events Conditions
12:53 AM 34.0 °F - 33.1 °F 96% 30.03 in 10.0 mi Calm Calm - N/A   Clear
1:53 AM 33.1 °F - 30.9 °F 92% 30.04 in 10.0 mi Calm Calm - N/A   Clear
2:53 AM 33.1 °F - 30.9 °F 92% 30.02 in 10.0 mi Calm Calm - N/A   Clear
3:53 AM 33.1 °F - 32.0 °F 96% 30.02 in 10.0 mi Calm Calm - N/A   Clear
4:53 AM 34.0 °F - 32.0 °F 92% 30.03 in 10.0 mi Calm Calm - N/A   Clear
5:53 AM 37.0 °F 34.5 °F 35.1 °F 93% 30.03 in 10.0 mi SW 3.5 mph - N/A   Clear
6:53 AM 43.0 °F - 39.9 °F 89% 30.02 in 10.0 mi Calm Calm - N/A   Clear
7:53 AM 48.0 °F - 39.9 °F 74% 30.01 in 10.0 mi Calm Calm - N/A   Clear
8:53 AM 52.0 °F - 42.1 °F 69% 30.00 in 10.0 mi Variable 3.5 mph - N/A   Clear
9:53 AM 55.9 °F - 43.0 °F 62% 29.99 in 10.0 mi South 9.2 mph - N/A   Clear
10:53 AM 61.0 °F - 44.1 °F 54% 29.97 in 10.0 mi South 6.9 mph - N/A   Clear
11:53 AM 66.0 °F - 46.0 °F 48% 29.95 in 10.0 mi South 11.5 mph 17.3 mph N/A   Clear
12:53 PM 71.1 °F - 44.1 °F 38% 29.93 in 10.0 mi Variable 6.9 mph 21.9 mph N/A   Clear
1:53 PM 72.0 °F - 42.1 °F 34% 29.91 in 10.0 mi South 10.4 mph 21.9 mph N/A   Clear
2:53 PM 73.0 °F - 41.0 °F 31% 29.89 in 10.0 mi South 11.5 mph 25.3 mph N/A   Clear
3:53 PM 73.0 °F - 41.0 °F 31% 29.89 in 10.0 mi South 8.1 mph 19.6 mph N/A   Clear
4:53 PM 71.1 °F - 42.1 °F 35% 29.89 in 10.0 mi South 12.7 mph 25.3 mph N/A   Clear
5:53 PM 68.0 °F - 42.1 °F 39% 29.89 in 10.0 mi South 11.5 mph 19.6 mph N/A   Clear
6:53 PM 66.0 °F - 43.0 °F 43% 29.89 in 10.0 mi South 6.9 mph - N/A   Clear
7:53 PM 66.9 °F - 43.0 °F 42% 29.89 in 10.0 mi South 9.2 mph 18.4 mph N/A   Clear
8:53 PM 64.9 °F - 43.0 °F 45% 29.90 in 10.0 mi Variable 5.8 mph - N/A   Clear
9:53 PM 66.0 °F - 43.0 °F 43% 29.93 in 10.0 mi SSW 8.1 mph - N/A   Clear
10:53 PM 66.0 °F - 42.1 °F 42% 29.94 in 10.0 mi South 9.2 mph 17.3 mph N/A   Clear
11:53 PM 64.0 °F - 43.0 °F 46% 29.95 in 10.0 mi SSW 8.1 mph - N/A   Clear